Weather History for Defiance, OH

Change the Weather History Date:

Tuesday, March 12, 2013

  Actual Average Record
Temperature  
Mean Temperature 33 °F -  
Max Temperature 36 °F 44 °F 75 °F (1990)
Min Temperature 30 °F 25 °F -7 °F (1948)
Degree Days  
Heating Degree Days 32    
Moisture  
Dew Point 27 °F    
Average Humidity 78    
Maximum Humidity 89    
Minimum Humidity 64    
Precipitation  
Precipitation 0.00 in - - ()
Sea Level Pressure  
Sea Level Pressure 29.91 in    
Wind  
Wind Speed 9 mph (WSW)    
Max Wind Speed 14 mph    
Max Gust Speed 24 mph    
Visibility 9 miles    
Events Rain , Snow    
Averages and records for this station are not official NWS values.
T = Trace of Precipitation, MM = Missing Value Source: NWS Daily Summary

Daily Weather History Graph

Daily Weather History Graph

Search for Another Location

Airport:

Trip Planner

Search our weather history database for the weather conditions in past years. The results will help you decide how hot, cold, wet, or windy it might be!

Date:

Astronomy

Mar. 12, 2013 Rise Set
Actual Time 7:54 AM EDT 7:41 PM EDT
Civil Twilight 7:26 AM EDT 8:08 PM EDT
Nautical Twilight 6:54 AM EDT 8:40 PM EDT
Astronomical Twilight 6:22 AM EDT 9:13 PM EDT
Moon 7:59 AM EDT (3/12) 8:56 PM EDT (3/12)
Length of Visible Light 12h 42m
Length of Day
11h 47m
New Moon, 1% of the Moon is Illuminated
Mar 12
New Moon
Mar 19
First Quarter
Mar 27
Full
Apr 3
Last Quarter
Apr 10
New

Hourly Weather History & Observations

Time (EDT) Temp. Windchill Dew Point Humidity Pressure Visibility Wind Dir Wind Speed Gust Speed Precip Events Conditions
12:53 AM 36.0 °F 29.0 °F 32.0 °F 86% 29.79 in 7.0 mi SW 9.2 mph - 0.00 in Snow Light Snow
1:24 AM 35.6 °F 29.2 °F 32.0 °F 87% 29.78 in 10.0 mi WSW 8.1 mph 18.4 mph 0.01 in Rain Light Rain
2:32 AM 35.6 °F 28.0 °F 30.2 °F 81% 29.80 in 10.0 mi WSW 10.4 mph 20.7 mph N/A   Overcast
2:53 AM 35.1 °F 27.4 °F 28.9 °F 78% 29.81 in 10.0 mi WSW 10.4 mph 24.2 mph N/A   Overcast
3:53 AM 35.1 °F 25.9 °F 28.9 °F 78% 29.83 in 10.0 mi WSW 13.8 mph 20.7 mph N/A   Overcast
4:53 AM 34.0 °F 27.2 °F 28.9 °F 82% 29.83 in 10.0 mi WSW 8.1 mph 21.9 mph N/A   Overcast
5:53 AM 34.0 °F 26.0 °F 28.9 °F 82% 29.86 in 8.0 mi WSW 10.4 mph 17.3 mph N/A   Overcast
6:53 AM 33.1 °F 26.1 °F 30.0 °F 89% 29.87 in 7.0 mi WSW 8.1 mph 18.4 mph N/A   Overcast
7:53 AM 33.1 °F 25.5 °F 30.0 °F 89% 29.88 in 10.0 mi WSW 9.2 mph - N/A   Overcast
8:53 AM 33.1 °F 26.9 °F 28.9 °F 85% 29.90 in 9.0 mi WSW 6.9 mph - N/A   Overcast
9:01 AM 33.8 °F 27.7 °F 28.4 °F 81% 29.89 in 9.0 mi West 6.9 mph - N/A   Overcast
9:53 AM 33.1 °F 26.1 °F 28.0 °F 82% 29.92 in 8.0 mi WSW 8.1 mph - N/A   Overcast
10:07 AM 33.8 °F 26.4 °F 28.4 °F 81% 29.90 in 7.0 mi WSW 9.2 mph - N/A   Overcast
10:53 AM 33.1 °F 25.5 °F 28.0 °F 82% 29.93 in 10.0 mi WSW 9.2 mph 18.4 mph N/A   Overcast
11:53 AM 33.1 °F 25.5 °F 27.0 °F 78% 29.93 in 10.0 mi SW 9.2 mph - N/A   Overcast
12:53 PM 33.1 °F 23.9 °F 26.1 °F 75% 29.96 in 10.0 mi WSW 12.7 mph 21.9 mph N/A   Overcast
1:24 PM 33.8 °F 25.3 °F 24.8 °F 70% 29.94 in 10.0 mi WSW 11.5 mph 21.9 mph N/A   Overcast
1:37 PM 33.8 °F 24.8 °F 24.8 °F 70% 29.94 in 10.0 mi WSW 12.7 mph 21.9 mph N/A   Overcast
1:53 PM 33.1 °F 25.5 °F 25.0 °F 72% 29.96 in 10.0 mi WSW 9.2 mph 18.4 mph N/A   Overcast
2:53 PM 34.0 °F 26.6 °F 25.0 °F 70% 29.94 in 10.0 mi WSW 9.2 mph 19.6 mph N/A   Overcast
3:53 PM 35.1 °F 27.4 °F 24.1 °F 64% 29.94 in 10.0 mi WSW 10.4 mph 19.6 mph N/A   Overcast
4:50 PM 35.6 °F 26.6 °F 26.6 °F 70% 29.93 in 10.0 mi SW 13.8 mph 20.7 mph N/A   Overcast
4:53 PM 35.1 °F 26.9 °F 25.0 °F 67% 29.95 in 10.0 mi WSW 11.5 mph 20.7 mph N/A   Overcast
5:53 PM 35.1 °F 29.3 °F 25.0 °F 67% 29.95 in 10.0 mi WSW 6.9 mph 16.1 mph N/A   Overcast
6:53 PM 36.0 °F 30.3 °F 25.0 °F 64% 29.96 in 10.0 mi Variable 6.9 mph - N/A   Overcast
7:53 PM 34.0 °F 27.2 °F 25.0 °F 70% 29.96 in 10.0 mi WSW 8.1 mph - N/A   Scattered Clouds
8:53 PM 33.1 °F 26.9 °F 24.1 °F 70% 29.98 in 10.0 mi SW 6.9 mph - N/A   Clear
9:53 PM 30.0 °F 25.2 °F 23.0 °F 75% 29.97 in 10.0 mi SSW 4.6 mph - N/A   Scattered Clouds
10:20 PM 33.8 °F 24.8 °F 24.8 °F 70% 29.95 in 2.5 mi SW 12.7 mph 18.4 mph 0.00 in Snow Light Snow
10:35 PM 32.0 °F 24.2 °F 26.6 °F 80% 29.95 in 6.0 mi SW 9.2 mph - 0.00 in Snow Light Snow
10:53 PM 32.0 °F 24.2 °F 28.0 °F 85% 29.97 in 8.0 mi SW 9.2 mph - 0.00 in Snow Light Snow
11:21 PM 32.0 °F 25.6 °F 28.4 °F 87% 29.95 in 7.0 mi SW 6.9 mph - 0.00 in   Overcast
11:37 PM 32.0 °F 25.6 °F 28.4 °F 87% 29.95 in 8.0 mi WSW 6.9 mph - 0.00 in   Overcast
11:53 PM 32.0 °F 25.6 °F 28.0 °F 85% 29.97 in 10.0 mi WSW 6.9 mph - 0.00 in   Scattered Clouds